• In Deutschland
  • Länderverzeichnis
  • Für 7 Tage
  • Wassertemperatur
  • Satellitenkarten
  • Wetterkarte
  • Widgets
  • user-avatar
    Anmelden

    Stündliche Wetter Berchtesgaden

    Heute, 22 Januar, Montag

    Zeit Temperatur Niederschläge Wind Luftdruck Luftfeuchtigkeit
    00:00 -6°C° 0 mm 2 m/S 706 mmHg 91%
    01:00 -5°C° 0 mm 2 m/S 705 mmHg 90%
    02:00 -3°C° 0,4 mm 1 m/S 705 mmHg 91%
    03:00 -2°C° 0,4 mm 1 m/S 704 mmHg 93%
    04:00 -2°C° 0,4 mm 1 m/S 704 mmHg 94%
    05:00 -1°C° 1,4 mm 1 m/S 704 mmHg 94%
    06:00 -1°C° 1,4 mm 1 m/S 703 mmHg 95%
    07:00 -2°C° 1,4 mm 2 m/S 703 mmHg 95%
    08:00 -2°C° 1,2 mm 2 m/S 703 mmHg 95%
    09:00 -1°C° 1,2 mm 2 m/S 703 mmHg 95%
    10:00 +1°C° 1,2 mm 2 m/S 702 mmHg 95%
    11:00 +2°C° 1,5 mm 2 m/S 702 mmHg 96%
    12:00 +2°C° 1,5 mm 2 m/S 702 mmHg 96%
    13:00 +4°C° 1,5 mm 1 m/S 701 mmHg 97%
    14:00 +5°C° 1,4 mm 1 m/S 701 mmHg 98%
    15:00 +5°C° 1,4 mm 1 m/S 701 mmHg 98%
    16:00 +5°C° 1,4 mm 1 m/S 701 mmHg 98%
    17:00 +5°C° 1,2 mm 1 m/S 701 mmHg 98%
    18:00 +5°C° 1,2 mm 1 m/S 702 mmHg 98%
    19:00 +5°C° 1,2 mm 1 m/S 702 mmHg 98%
    20:00 +4°C° 0,5 mm 2 m/S 703 mmHg 98%
    21:00 +4°C° 0,5 mm 2 m/S 703 mmHg 98%
    22:00 +3°C° 0,5 mm 3 m/S 704 mmHg 98%
    23:00 +3°C° 0,3 mm 3 m/S 705 mmHg 98%

    Morgen, 23 Januar, Dienstag

    Zeit Temperatur Niederschläge Wind Luftdruck Luftfeuchtigkeit
    00:00 +3°C° 0,3 mm 3 m/S 705 mmHg 98%
    01:00 +3°C° 0,3 mm 3 m/S 706 mmHg 97%
    02:00 +2°C° 0,5 mm 3 m/S 706 mmHg 97%
    03:00 +2°C° 0,5 mm 3 m/S 707 mmHg 97%
    04:00 +2°C° 0,5 mm 3 m/S 707 mmHg 96%
    05:00 +2°C° 0,6 mm 3 m/S 708 mmHg 96%
    06:00 +2°C° 0,6 mm 3 m/S 709 mmHg 96%
    07:00 +2°C° 0,6 mm 3 m/S 709 mmHg 96%
    08:00 +2°C° 0,6 mm 3 m/S 710 mmHg 96%
    09:00 +3°C° 0,6 mm 2 m/S 710 mmHg 95%
    10:00 +3°C° 0,6 mm 2 m/S 711 mmHg 95%
    11:00 +3°C° 0,2 mm 2 m/S 711 mmHg 95%
    12:00 +4°C° 0,2 mm 2 m/S 711 mmHg 94%
    13:00 +4°C° 0,2 mm 2 m/S 711 mmHg 94%
    14:00 +5°C° 0 mm 1 m/S 712 mmHg 94%
    15:00 +5°C° 0 mm 1 m/S 712 mmHg 94%
    16:00 +4°C° 0 mm 1 m/S 712 mmHg 95%
    17:00 +3°C° 0 mm 1 m/S 712 mmHg 92%
    18:00 +2°C° 0 mm 1 m/S 712 mmHg 89%
    19:00 -1°C° 0 mm 2 m/S 713 mmHg 86%
    20:00 -1°C° 0 mm 2 m/S 713 mmHg 83%
    21:00 -1°C° 0 mm 2 m/S 713 mmHg 79%
    22:00 -2°C° 0 mm 2 m/S 713 mmHg 76%
    23:00 -1°C° 0 mm 2 m/S 713 mmHg 74%

    übermorgen, 24 Januar, Mittwoch

    Zeit Temperatur Niederschläge Wind Luftdruck Luftfeuchtigkeit
    00:00 -1°C° 0 mm 2 m/S 713 mmHg 72%
    01:00 -1°C° 0 mm 2 m/S 713 mmHg 71%
    02:00 +1°C° 0 mm 2 m/S 713 mmHg 72%
    03:00 +2°C° 0 mm 2 m/S 713 mmHg 73%
    04:00 +3°C° 0 mm 2 m/S 713 mmHg 74%
    05:00 +3°C° 0 mm 2 m/S 713 mmHg 74%
    06:00 +4°C° 0 mm 1 m/S 713 mmHg 74%
    07:00 +5°C° 0 mm 1 m/S 714 mmHg 75%
    08:00 +5°C° 0 mm 1 m/S 714 mmHg 78%
    09:00 +6°C° 0 mm 1 m/S 714 mmHg 82%
    10:00 +7°C° 0 mm 1 m/S 714 mmHg 85%
    11:00 +7°C° 0 mm 1 m/S 713 mmHg 87%
    12:00 +8°C° 0 mm 1 m/S 713 mmHg 89%
    13:00 +9°C° 0 mm 1 m/S 712 mmHg 91%
    14:00 +8°C° 0 mm 1 m/S 712 mmHg 93%
    15:00 +7°C° 0 mm 1 m/S 712 mmHg 94%
    16:00 +6°C° 0 mm 2 m/S 712 mmHg 96%
    17:00 +5°C° 0 mm 2 m/S 712 mmHg 92%
    18:00 +4°C° 0 mm 2 m/S 712 mmHg 89%
    19:00 +3°C° 0 mm 2 m/S 712 mmHg 85%
    20:00 +3°C° 0 mm 2 m/S 711 mmHg 83%
    21:00 +3°C° 0 mm 2 m/S 711 mmHg 81%
    22:00 +2°C° 0 mm 2 m/S 711 mmHg 79%
    23:00 +2°C° 0 mm 2 m/S 711 mmHg 78%

    25 Januar, Donnerstag

    Zeit Temperatur Niederschläge Wind Luftdruck Luftfeuchtigkeit
    00:00 +2°C° 0 mm 2 m/S 711 mmHg 76%
    01:00 +2°C° 0 mm 2 m/S 711 mmHg 75%
    02:00 +2°C° 0 mm 2 m/S 710 mmHg 75%
    03:00 +2°C° 0 mm 2 m/S 710 mmHg 74%
    04:00 +2°C° 0 mm 2 m/S 710 mmHg 73%
    05:00 +2°C° 0 mm 2 m/S 710 mmHg 73%
    06:00 +2°C° 0 mm 2 m/S 709 mmHg 73%
    07:00 +2°C° 0 mm 2 m/S 709 mmHg 73%
    08:00 +3°C° 0 mm 2 m/S 709 mmHg 75%
    09:00 +4°C° 0 mm 2 m/S 709 mmHg 76%
    10:00 +5°C° 0 mm 2 m/S 708 mmHg 78%
    11:00 +6°C° 0 mm 2 m/S 708 mmHg 81%
    12:00 +6°C° 0 mm 2 m/S 707 mmHg 84%
    13:00 +7°C° 0 mm 2 m/S 707 mmHg 87%
    14:00 +7°C° 0 mm 2 m/S 706 mmHg 89%
    15:00 +6°C° 0 mm 2 m/S 706 mmHg 90%
    16:00 +7°C° 0 mm 1 m/S 706 mmHg 92%
    17:00 +5°C° 0 mm 2 m/S 706 mmHg 90%
    18:00 +4°C° 0 mm 2 m/S 706 mmHg 89%
    19:00 +3°C° 0 mm 2 m/S 706 mmHg 88%
    20:00 +3°C° 0 mm 2 m/S 706 mmHg 87%
    21:00 +2°C° 0 mm 2 m/S 706 mmHg 86%
    22:00 +2°C° 0 mm 2 m/S 706 mmHg 85%
    23:00 +2°C° 0 mm 2 m/S 706 mmHg 85%

    26 Januar, Freitag

    Zeit Temperatur Niederschläge Wind Luftdruck Luftfeuchtigkeit
    00:00 +2°C° 0 mm 2 m/S 705 mmHg 85%
    01:00 +2°C° 0 mm 2 m/S 705 mmHg 85%
    02:00 +2°C° 0 mm 2 m/S 705 mmHg 86%
    03:00 +1°C° 0 mm 2 m/S 705 mmHg 86%
    04:00 +2°C° 0 mm 1 m/S 705 mmHg 87%
    05:00 +2°C° 0 mm 1 m/S 705 mmHg 87%
    06:00 +2°C° 0 mm 1 m/S 705 mmHg 88%
    07:00 +2°C° 0 mm 1 m/S 704 mmHg 88%
    08:00 +3°C° 0 mm 1 m/S 705 mmHg 89%
    09:00 +4°C° 0 mm 1 m/S 705 mmHg 89%
    10:00 +5°C° 0 mm 1 m/S 705 mmHg 90%
    11:00 +5°C° 0 mm 1 m/S 705 mmHg 90%
    12:00 +6°C° 0 mm 1 m/S 705 mmHg 91%
    13:00 +6°C° 0 mm 1 m/S 705 mmHg 91%
    14:00 +5°C° 0,2 mm 2 m/S 705 mmHg 93%
    15:00 +5°C° 0,2 mm 2 m/S 705 mmHg 94%
    16:00 +5°C° 0,2 mm 2 m/S 706 mmHg 95%
    17:00 +4°C° 0,9 mm 2 m/S 706 mmHg 96%
    18:00 +4°C° 0,9 mm 2 m/S 707 mmHg 96%
    19:00 +3°C° 0,9 mm 2 m/S 707 mmHg 96%
    20:00 +3°C° 1,4 mm 2 m/S 708 mmHg 96%
    21:00 +3°C° 1,4 mm 2 m/S 708 mmHg 96%
    22:00 +3°C° 1,4 mm 2 m/S 709 mmHg 95%
    23:00 +2°C° 1,5 mm 2 m/S 709 mmHg 96%

    27 Januar, Samstag

    Zeit Temperatur Niederschläge Wind Luftdruck Luftfeuchtigkeit
    00:00 +2°C° 1,5 mm 2 m/S 709 mmHg 96%
    01:00 +3°C° 1,5 mm 1 m/S 710 mmHg 96%
    02:00 +3°C° 1,1 mm 1 m/S 710 mmHg 97%
    03:00 +3°C° 1,1 mm 1 m/S 710 mmHg 97%
    04:00 +2°C° 1,1 mm 1 m/S 710 mmHg 97%
    05:00 +2°C° 1,1 mm 1 m/S 711 mmHg 97%
    06:00 +2°C° 1,1 mm 1 m/S 712 mmHg 97%
    07:00 +2°C° 1,1 mm 1 m/S 712 mmHg 97%
    08:00 +2°C° 1 mm 1 m/S 713 mmHg 97%
    09:00 +3°C° 1 mm 1 m/S 713 mmHg 97%
    10:00 +3°C° 1 mm 1 m/S 714 mmHg 96%
    11:00 +3°C° 0,5 mm 1 m/S 714 mmHg 96%
    12:00 +3°C° 0,5 mm 1 m/S 715 mmHg 95%
    13:00 +4°C° 0,5 mm 1 m/S 715 mmHg 95%
    14:00 +4°C° 0,2 mm 1 m/S 715 mmHg 94%
    15:00 +4°C° 0,2 mm 1 m/S 716 mmHg 94%
    16:00 +4°C° 0,2 mm 1 m/S 716 mmHg 94%
    17:00 +3°C° 0,1 mm 1 m/S 716 mmHg 94%
    18:00 +3°C° 0,1 mm 1 m/S 717 mmHg 95%
    19:00 +1°C° 0,1 mm 0 m/S 717 mmHg 95%
    20:00 +1°C° 0 mm 0 m/S 718 mmHg 95%
    21:00 +1°C° 0 mm 0 m/S 718 mmHg 95%
    22:00 +1°C° 0 mm 0 m/S 719 mmHg 95%
    23:00 0°C° 0 mm 0 m/S 719 mmHg 95%
    Mehr zeigen